Home > Time Zones > World Clock > Weather > Egypt > Cairo > Past weeks

Flag for Egypt Weather past 2 weeks in Cairo, Egypt

Now
61 °F

Clear.


Feels Like: 61 °F
Forecast: 58 / 81 °F
Wind: 9 mph from West

Location: Cairo Airport

Current Time: Apr 1, 2015 at 3:56:01 AM

Latest Report: Apr 1, 2015 at 3:00 AM


Visibility: 10 mi

Pressure: 29.95 "Hg

Humidity: 68%

Dew point: 50 °F

Location of CairoLocation

Historic Weather in Cairo — Graph

°F

Cairo temperature yesterday

Maximum temperature yesterday: 79 °F (at 3:00 PM)
Minimum temperature yesterday: 59 °F (at 2:00 AM)
Average temperature yesterday: 68 °F

Past Weeks' High & Low Weather Summary

 TemperatureHumidityPressure
High95 °F (Mar 27, 3:00 PM)100% (Mar 29, 5:00 AM)30.18 "Hg (Mar 29, 5:00 AM)
Low48 °F (Mar 22, 6:30 AM)15% (Mar 23, 1:30 PM)29.62 "Hg (Mar 28, 12:00 AM)
Average67 °F49%29.98 "Hg
* Reported Mar 17 2:00 AM — Apr 1 2:30 AM, Cairo, Weather by CustomWeather, © 2015

Note: Actual official high and low records may vary slightly from our data, if they occured in-between our weather recording intervals... More about our weather records

Advertising

Cairo weather history for previous 24 hours

 ConditionsComfort  
Time TempWeatherWind HumidityBarometerVisibility
2:30 AM
Wed, Apr 1
61 °FClear.9 mph63%29.95 "Hg10 mi
2:00 AM63 °FClear.12 mph64%29.95 "Hg10 mi
1:30 AM63 °FClear.10 mph59%29.95 "Hg10 mi
1:00 AM64 °FClear.13 mph52%29.95 "Hg10 mi
12:30 AM64 °FClear.12 mph52%29.95 "Hg10 mi
12:00 AM64 °FClear.9 mph52%29.95 "Hg10 mi
11:30 PM
Tue, Mar 31
64 °FClear.9 mph52%29.95 "Hg10 mi
11:00 PM66 °FClear.9 mph52%29.95 "Hg10 mi
10:30 PM66 °FClear.6 mph52%29.95 "Hg4 mi
10:00 PM66 °FHaze.6 mph52%29.95 "Hg2 mi
9:30 PM66 °FHaze.10 mph52%29.95 "Hg2 mi
9:00 PM70 °FClear.7 mph40%29.92 "Hg10 mi
8:30 PM70 °FClear.7 mph38%29.92 "Hg10 mi
8:00 PM72 °FClear.10 mph36%29.89 "Hg10 mi
7:30 PM72 °FClear.8 mph33%29.89 "Hg10 mi
7:00 PM72 °FClear.10 mph33%29.89 "Hg10 mi
6:30 PM72 °FClear.10 mph33%29.89 "Hg4 mi
6:00 PM72 °FSandstorm.15 mph33%29.89 "Hg2 mi
5:30 PM73 °FSandstorm.17 mph29%29.86 "Hg1 mi
5:00 PM77 °FSandstorm.16 mph22%29.86 "Hg1 mi
4:30 PM77 °FSandstorm.17 mph22%29.83 "Hg2 mi
4:00 PM77 °FSandstorm.16 mph22%29.83 "Hg2 mi
3:30 PM79 °FClear.15 mph20%29.86 "Hg4 mi
3:00 PM79 °FSandstorm.13 mph16%29.86 "Hg2 mi
2:30 PM77 °FPassing clouds.16 mph24%29.89 "HgN/A
2:00 PM77 °FPassing clouds.16 mph24%29.89 "HgN/A
1:30 PM75 °FPassing clouds.15 mph27%29.92 "HgN/A
1:00 PM75 °FPassing clouds.15 mph27%29.92 "HgN/A
12:30 PM75 °FPassing clouds.15 mph27%29.95 "HgN/A
12:00 PM75 °FPassing clouds.14 mph27%29.98 "HgN/A
11:30 AM73 °FScattered clouds.14 mph29%29.98 "HgN/A
11:00 AM72 °FScattered clouds.12 mph33%30.01 "HgN/A
10:30 AM72 °FScattered clouds.9 mph41%30.01 "HgN/A
10:00 AM70 °FPassing clouds.9 mph43%30.04 "HgN/A
9:30 AM70 °FSunny.8 mph43%30.04 "Hg10 mi
9:00 AM68 °FSunny.8 mph43%30.04 "Hg10 mi
8:30 AM68 °FSunny.6 mph43%30.04 "Hg10 mi
8:00 AM66 °FSunny.5 mph43%30.04 "Hg10 mi
7:30 AM64 °FSunny.No wind52%30.04 "Hg10 mi
7:00 AM61 °FSunny.No wind55%30.04 "Hg10 mi
6:03 AM59 °FRefreshingly cool.N/A59%30.01 "HgN/A
6:00 AM59 °FSunny.No wind59%30.01 "Hg10 mi
5:30 AM59 °FClear.No wind59%30.01 "Hg10 mi
5:00 AM59 °FClear.No wind63%30.01 "Hg10 mi
4:30 AM59 °FClear.2 mph63%30.01 "Hg10 mi
4:00 AM59 °FClear.5 mph63%30.01 "Hg10 mi
3:30 AM61 °FClear.5 mph59%30.01 "Hg10 mi
3:00 AM59 °FClear.3 mph68%30.01 "Hg10 mi
Weather by CustomWeather, © 2015

See weather overviewHow to use our weather pages